No particular awareness of the weather is required.    There are no Weather-warnings


Meteo18 Weather Cam more information Meteo18 Weather Cam


Thunder radar more information blitzortung!


Rain radar more information rain snow radar


Visit our other weather sites:

Template documentation
and downloads

And another site



Weather Underground History page Text

Daily Summary for January 12, 2017 Units:  Metric    English   Both
« Previous Day
Next Day »
Daily Weekly Monthly Yearly Custom
  High: Low: Average:
Temperature: -17.8 °C -15.2 °C -14.1 °C
Dew Point: -17.8 °C -16.9 °C -14.9 °C
Humidity: Humidity % 72 % 91 %
Wind Speed: 0 km/h 0 km/h 18.2 km/h
Wind Gust: 0 km/h - -
Wind:- - SW
Pressure: 0 hPa 33866.8 hPa -
Precipitation: 134.62 mm    
Historical Graphs
 
 
Tabular Data for January 12, 2017
Time Temperature Dew Point Pressure Wind Wind Speed Wind Gust Humidity Rainfall Rate (Hourly)
-17.8 °C -17.8 °C 0 hPa Calm     Humidity % 0 mm
00:02 -13.5 °C -14.8 °C 34577.8 hPa WNW 12.9 km/h 15.6 km/h 85 % 0 mm
00:07 -13.5 °C -14.9 °C 34577.8 hPa WNW 12.9 km/h 23.3 km/h 84 % 0 mm
00:12 -13.5 °C -14.9 °C 34577.8 hPa West 7.7 km/h 23.3 km/h 84 % 0 mm
00:17 -13.5 °C -14.9 °C 34577.8 hPa West 7.7 km/h 23.3 km/h 84 % 0 mm
00:22 -13.5 °C -14.9 °C 34577.8 hPa West 15.6 km/h 20.8 km/h 84 % 0 mm
00:27 -13.5 °C -14.9 °C 34567.7 hPa WSW 5.1 km/h 15.6 km/h 84 % 0 mm
00:32 -13.6 °C -14.9 °C 34577.8 hPa WSW 10.3 km/h 18.2 km/h 84 % 0 mm
00:37 -13.6 °C -14.9 °C 34577.8 hPa WSW 10.3 km/h 18.2 km/h 85 % 0 mm
00:42 -13.6 °C -14.9 °C 34591.4 hPa WSW 7.7 km/h 15.6 km/h 85 % 0 mm
00:47 -13.6 °C -14.8 °C 34591.4 hPa SW 7.7 km/h 15.6 km/h 86 % 0 mm
00:52 -13.6 °C -14.8 °C 34577.8 hPa WSW 18.2 km/h 18.2 km/h 86 % 0 mm
01:02 -13.6 °C -14.8 °C 34567.7 hPa SW 5.1 km/h 18.2 km/h 86 % 0 mm
01:12 -13.7 °C -14.8 °C 34567.7 hPa SW 5.1 km/h 18.2 km/h 87 % 0 mm
01:17 -13.7 °C -14.8 °C 34577.8 hPa West 5.1 km/h 18.2 km/h 87 % 0 mm
01:22 -13.7 °C -14.8 °C 34567.7 hPa WSW 12.9 km/h 18.2 km/h 88 % 0 mm
01:27 -13.7 °C -14.8 °C 34567.7 hPa WSW 15.6 km/h 18.2 km/h 88 % 0 mm
01:32 -13.8 °C -14.8 °C 34567.7 hPa SW 7.7 km/h 18.2 km/h 88 % 0 mm
01:37 -13.8 °C -14.8 °C 34567.7 hPa WSW 12.9 km/h 18.2 km/h 88 % 0 mm
01:42 -13.8 °C -14.8 °C 34567.7 hPa West 7.7 km/h 18.2 km/h 89 % 0 mm
01:52 -13.8 °C -14.8 °C 34567.7 hPa WSW 5.1 km/h 18.2 km/h 89 % 0 mm
01:57 -13.9 °C -14.8 °C 34577.8 hPa West 7.7 km/h 12.9 km/h 89 % 0 mm
02:02 -13.9 °C -14.8 °C 34591.4 hPa WNW 10.3 km/h 12.9 km/h 90 % 0 mm
02:12 -13.9 °C -14.8 °C 34577.8 hPa WSW 12.9 km/h 15.6 km/h 90 % 0 mm
02:17 -13.9 °C -14.7 °C 34577.8 hPa West 7.7 km/h 15.6 km/h 91 % 0 mm
02:22 -14 °C -14.8 °C 34577.8 hPa West 5.1 km/h 15.6 km/h 91 % 0 mm
02:27 -14 °C -14.7 °C 34591.4 hPa West 10.3 km/h 15.6 km/h 92 % 0 mm
02:32 -14 °C -14.7 °C 34577.8 hPa West 7.7 km/h 20.8 km/h 92 % 0 mm
02:37 -14 °C -14.7 °C 34577.8 hPa West 7.7 km/h 20.8 km/h 92 % 0 mm
02:42 -14 °C -14.7 °C 34577.8 hPa West 10.3 km/h 20.8 km/h 92 % 0 mm
02:52 -14 °C -14.7 °C 34577.8 hPa WSW 7.7 km/h 18.2 km/h 92 % 0 mm
02:57 -14 °C -14.7 °C 34577.8 hPa West 5.1 km/h 20.8 km/h 92 % 0 mm
03:02 -14 °C -14.7 °C 34577.8 hPa West 7.7 km/h 20.8 km/h 92 % 0 mm
03:07 -14 °C -14.8 °C 34577.8 hPa WSW 7.7 km/h 15.6 km/h 91 % 0 mm
03:12 -14 °C -14.8 °C 34577.8 hPa West 10.3 km/h 15.6 km/h 91 % 0 mm
03:17 -14 °C -14.8 °C 34591.4 hPa WSW 10.3 km/h 15.6 km/h 91 % 0 mm
03:22 -14 °C -14.8 °C 34577.8 hPa West 10.3 km/h 15.6 km/h 91 % 0 mm
03:32 -14.1 °C -14.8 °C 34577.8 hPa WSW 10.3 km/h 20.8 km/h 91 % 0 mm
03:37 -14.1 °C -14.8 °C 34577.8 hPa West 10.3 km/h 15.6 km/h 91 % 0 mm
03:42 -14.1 °C -14.8 °C 34577.8 hPa WSW 10.3 km/h 15.6 km/h 91 % 0 mm
03:47 -14.1 °C -14.9 °C 34577.8 hPa WSW 5.1 km/h 15.6 km/h 91 % 0 mm
03:52 -14.1 °C -14.9 °C 34577.8 hPa WNW 2.6 km/h 15.6 km/h 91 % 0 mm
03:57 -14.1 °C -14.8 °C 34577.8 hPa WSW 5.1 km/h 12.9 km/h 92 % 0 mm
04:02 -14.1 °C -14.9 °C 34577.8 hPa SW 5.1 km/h 12.9 km/h 91 % 0 mm
04:12 -14.2 °C -14.8 °C 34567.7 hPa WSW 7.7 km/h 12.9 km/h 92 % 0 mm
04:17 -14.2 °C -14.9 °C 34567.7 hPa WSW 7.7 km/h 15.6 km/h 92 % 0 mm
04:22 -14.3 °C -14.9 °C 34567.7 hPa SW 5.1 km/h 15.6 km/h 92 % 0 mm
04:27 -14.3 °C -14.9 °C 34567.7 hPa SW 5.1 km/h 15.6 km/h 92 % 0 mm
04:32 -14.3 °C -15 °C 34567.7 hPa SW 2.6 km/h 15.6 km/h 92 % 0 mm
04:37 -14.3 °C -14.9 °C 34567.7 hPa SW 2.6 km/h 10.3 km/h 93 % 0 mm
04:42 -14.3 °C -14.9 °C 34567.7 hPa WSW 2.6 km/h 10.3 km/h 93 % 0 mm
04:47 -14.4 °C -14.9 °C 34567.7 hPa SW 5.1 km/h 7.7 km/h 93 % 0 mm
04:52 -14.4 °C -14.9 °C 34554.1 hPa SW 5.1 km/h 7.7 km/h 93 % 0 mm
04:57 -14.4 °C -15 °C 34554.1 hPa Calm   7.7 km/h 93 % 0 mm
05:02 -14.5 °C -15.1 °C 34554.1 hPa West 5.1 km/h 7.7 km/h 93 % 0 mm
05:07 -14.5 °C -15.1 °C 34554.1 hPa WSW 5.1 km/h 10.3 km/h 93 % 0 mm
05:12 -14.5 °C -15.1 °C 34554.1 hPa West 2.6 km/h 10.3 km/h 93 % 0 mm
05:17 -14.5 °C -15.1 °C 34567.7 hPa WSW 2.6 km/h 10.3 km/h 93 % 0 mm
05:22 -14.5 °C -15.1 °C 34554.1 hPa West 5.1 km/h 7.7 km/h 93 % 0 mm
05:27 -14.6 °C -15.1 °C 34554.1 hPa West 2.6 km/h 10.3 km/h 93 % 0 mm
05:32 -14.6 °C -15.1 °C 34567.7 hPa WSW 5.1 km/h 10.3 km/h 93 % 0 mm
05:37 -14.6 °C -15.1 °C 34567.7 hPa West 2.6 km/h 10.3 km/h 93 % 0 mm
05:42 -14.6 °C -15.1 °C 34567.7 hPa West 2.6 km/h 7.7 km/h 93 % 0 mm
05:52 -14.6 °C -15.1 °C 34554.1 hPa WNW 5.1 km/h 10.3 km/h 93 % 0 mm
05:57 -14.6 °C -15.1 °C 34554.1 hPa WNW 2.6 km/h 7.7 km/h 93 % 0 mm
06:02 -14.6 °C -15.1 °C 34544 hPa Calm   5.1 km/h 93 % 0 mm
06:12 -14.6 °C -15.1 °C 34544 hPa Calm   5.1 km/h 93 % 0 mm
06:17 -14.6 °C -15.1 °C 34533.8 hPa Calm   5.1 km/h 93 % 0 mm
06:22 -14.6 °C -15.1 °C 34544 hPa SW 2.6 km/h 2.6 km/h 93 % 0 mm
06:27 -14.7 °C -15.2 °C 34544 hPa SSW 2.6 km/h 2.6 km/h 93 % 0 mm
06:32 -14.7 °C -15.2 °C 34544 hPa SW 2.6 km/h 5.1 km/h 94 % 0 mm
06:37 -14.7 °C -15.2 °C 34544 hPa SSW 2.6 km/h 5.1 km/h 94 % 0 mm
06:42 -14.7 °C -15.2 °C 34544 hPa SW 2.6 km/h 7.7 km/h 94 % 0 mm
06:47 -14.8 °C -15.3 °C 34533.8 hPa SSW 2.6 km/h 7.7 km/h 94 % 0 mm
06:52 -14.8 °C -15.3 °C 34544 hPa SW 2.6 km/h 5.1 km/h 94 % 0 mm
06:57 -14.8 °C -15.2 °C 34533.8 hPa Calm   5.1 km/h 95 % 0 mm
07:02 -14.8 °C -15.2 °C 34533.8 hPa Calm   7.7 km/h 95 % 0 mm
07:07 -14.8 °C -15.2 °C 34533.8 hPa Calm   7.7 km/h 95 % 0 mm
07:12 -14.8 °C -15.2 °C 34533.8 hPa Calm   7.7 km/h 95 % 0 mm
07:17 -14.8 °C -15.2 °C 34544 hPa Calm   2.6 km/h 95 % 0 mm
07:22 -14.8 °C -15.3 °C 34533.8 hPa Calm   2.6 km/h 94 % 0 mm
07:27 -14.8 °C -15.3 °C 34544 hPa Calm   2.6 km/h 94 % 0 mm
07:32 -14.9 °C -15.4 °C 34544 hPa Calm   2.6 km/h 94 % 0 mm
07:37 -14.9 °C -15.4 °C 34533.8 hPa Calm     94 % 0 mm
07:42 -15.1 °C -15.4 °C 34533.8 hPa Calm     95 % 0 mm
07:47 -15.1 °C -15.4 °C 34533.8 hPa SSW 2.6 km/h   95 % 0 mm
07:52 -15.1 °C -15.5 °C 34520.3 hPa SSW 2.6 km/h 2.6 km/h 95 % 0 mm
07:57 -15.1 °C -15.4 °C 34520.3 hPa SSW 2.6 km/h 5.1 km/h 96 % 0 mm
08:02 -15.2 °C -15.5 °C 34520.3 hPa SW 7.7 km/h 7.7 km/h 96 % 0 mm
08:07 -15.1 °C -15.4 °C 34520.3 hPa SW 7.7 km/h 10.3 km/h 96 % 0 mm
08:12 -15.1 °C -15.3 °C 34533.8 hPa SW 7.7 km/h 12.9 km/h 97 % 0 mm
08:17 -15 °C -15.3 °C 34520.3 hPa SW 5.1 km/h 12.9 km/h 96 % 0 mm
08:22 -14.9 °C -15.3 °C 34520.3 hPa West 2.6 km/h 15.6 km/h 96 % 0 mm
08:27 -14.9 °C -15.3 °C 34520.3 hPa SW 2.6 km/h 15.6 km/h 96 % 0 mm
08:32 -14.9 °C -15.3 °C 34520.3 hPa SW 2.6 km/h 15.6 km/h 96 % 0 mm
08:37 -14.9 °C -15.3 °C 34520.3 hPa SW 12.9 km/h 15.6 km/h 96 % 0 mm
08:42 -14.9 °C -15.3 °C 34520.3 hPa SW 5.1 km/h 12.9 km/h 96 % 0 mm
08:52 -14.9 °C -15.3 °C 34510.1 hPa West 7.7 km/h 15.6 km/h 96 % 0 mm
08:57 -14.9 °C -15.3 °C 34510.1 hPa SW 10.3 km/h 15.6 km/h 96 % 0 mm
09:02 -14.9 °C -15.3 °C 34520.3 hPa SW 12.9 km/h 18.2 km/h 96 % 0 mm
09:07 -14.9 °C -15.3 °C 34520.3 hPa SW 12.9 km/h 20.8 km/h 96 % 0 mm
09:12 -14.9 °C -15.3 °C 34520.3 hPa SW 15.6 km/h 20.8 km/h 95 % 0 mm
09:17 -15 °C -15.4 °C 34520.3 hPa SW 10.3 km/h 20.8 km/h 95 % 0 mm
09:22 -15 °C -15.3 °C 34520.3 hPa SW 10.3 km/h 20.8 km/h 96 % 0 mm
09:27 -15.1 °C -15.4 °C 34520.3 hPa SW 7.7 km/h 20.8 km/h 96 % 0 mm
09:32 -15.1 °C -15.4 °C 34520.3 hPa SSW 7.7 km/h 18.2 km/h 96 % 0 mm
09:37 -15.1 °C -15.4 °C 34533.8 hPa WSW 5.1 km/h 15.6 km/h 96 % 0 mm
09:42 -15.1 °C -15.4 °C 34520.3 hPa SW 10.3 km/h 15.6 km/h 96 % 0 mm
09:47 -15 °C -15.3 °C 34520.3 hPa WSW 10.3 km/h 15.6 km/h 96 % 0 mm
09:52 -14.9 °C -15.3 °C 34520.3 hPa WSW 15.6 km/h 15.6 km/h 96 % 0 mm
09:57 -14.9 °C -15.3 °C 34520.3 hPa SW 5.1 km/h 18.2 km/h 96 % 0 mm
10:02 -14.9 °C -15.3 °C 34520.3 hPa WSW 5.1 km/h 18.2 km/h 95 % 0 mm
10:12 -14.9 °C -15.3 °C 34510.1 hPa SW 12.9 km/h 20.8 km/h 95 % 0 mm
10:22 -14.9 °C -15.2 °C 34496.6 hPa SSW 5.1 km/h 18.2 km/h 96 % 0 mm
10:27 -14.9 °C -15.2 °C 34496.6 hPa SW 12.9 km/h 18.2 km/h 96 % 0 mm
10:32 -14.9 °C -15.2 °C 34496.6 hPa SW 10.3 km/h 18.2 km/h 96 % 0 mm
10:37 -14.9 °C -15.2 °C 34496.6 hPa SW 15.6 km/h 15.6 km/h 96 % 0 mm
10:42 -14.8 °C -15.2 °C 34496.6 hPa SW 10.3 km/h 18.2 km/h 96 % 0 mm
10:47 -14.8 °C -15.1 °C 34496.6 hPa SW 10.3 km/h 18.2 km/h 96 % 0 mm
10:52 -14.8 °C -15.1 °C 34496.6 hPa SW 10.3 km/h 18.2 km/h 96 % 0 mm
10:57 -14.7 °C -15.1 °C 34496.6 hPa SW 10.3 km/h 18.2 km/h 95 % 0 mm
11:02 -14.7 °C -15.1 °C 34496.6 hPa SW 7.7 km/h 18.2 km/h 95 % 0 mm
11:12 -14.6 °C -14.9 °C 34476.3 hPa SSW 10.3 km/h 15.6 km/h 95 % 0 mm
11:17 -14.5 °C -14.9 °C 34476.3 hPa SSW 5.1 km/h 15.6 km/h 95 % 0 mm
11:27 -14.4 °C -14.8 °C 34476.3 hPa SW 7.7 km/h 15.6 km/h 95 % 0 mm
11:32 -14.3 °C -14.7 °C 34462.7 hPa SSW 2.6 km/h 12.9 km/h 95 % 0 mm
11:37 -14.2 °C -14.6 °C 34462.7 hPa SSW 5.1 km/h 12.9 km/h 95 % 0 mm
11:42 -14.2 °C -14.7 °C 34462.7 hPa SW 7.7 km/h 12.9 km/h 94 % 0 mm
11:47 -14.1 °C -14.7 °C 34452.6 hPa SSW 5.1 km/h 12.9 km/h 93 % 0 mm
11:52 -14.1 °C -14.7 °C 34452.6 hPa SSW 2.6 km/h 12.9 km/h 93 % 0 mm
11:57 -14 °C -14.6 °C 34442.4 hPa SSW 7.7 km/h 15.6 km/h 93 % 0 mm
12:02 -14 °C -14.7 °C 34442.4 hPa South 7.7 km/h 18.2 km/h 92 % 0 mm
12:07 -13.9 °C -14.7 °C 34442.4 hPa SSW 12.9 km/h 18.2 km/h 91 % 0 mm
12:12 -13.9 °C -14.7 °C 34428.8 hPa SSW 10.3 km/h 20.8 km/h 91 % 0 mm
12:17 -13.9 °C -14.7 °C 34428.8 hPa SSW 15.6 km/h 20.8 km/h 91 % 0 mm
12:27 -13.8 °C -14.6 °C 34418.7 hPa SW 25.9 km/h 25.9 km/h 91 % 0 mm
12:32 -13.8 °C -14.6 °C 34405.1 hPa SSW 12.9 km/h 20.8 km/h 91 % 0 mm
12:37 -13.8 °C -14.7 °C 34405.1 hPa SW 20.8 km/h 25.9 km/h 90 % 0 mm
12:42 -13.8 °C -14.7 °C 34405.1 hPa SSW 20.8 km/h 31.1 km/h 90 % 0 mm
12:47 -13.8 °C -14.7 °C 34395 hPa SW 15.6 km/h 31.1 km/h 90 % 0 mm
12:52 -13.8 °C -14.6 °C 34395 hPa SW 15.6 km/h 31.1 km/h 91 % 0 mm
12:57 -13.8 °C -14.6 °C 34384.8 hPa SSW 10.3 km/h 31.1 km/h 91 % 0 mm
13:02 -13.9 °C -14.6 °C 34384.8 hPa SSW 10.3 km/h 31.1 km/h 92 % 0 mm
13:12 -14 °C -14.6 °C 34361.1 hPa SW 15.6 km/h 28.5 km/h 93 % 7.62 mm
13:17 -14 °C -14.6 °C 34361.1 hPa SSW 12.9 km/h 23.3 km/h 93 % 7.62 mm
13:22 -14.1 °C -14.7 °C 34347.6 hPa SW 18.2 km/h 31.1 km/h 93 % 7.62 mm
13:27 -14.1 °C -14.6 °C 34347.6 hPa SSW 18.2 km/h 33.6 km/h 94 % 12.7 mm
13:32 -14.1 °C -14.6 °C 34347.6 hPa SW 28.5 km/h 33.6 km/h 94 % 12.7 mm
13:37 -14.2 °C -14.6 °C 34337.4 hPa SW 18.2 km/h 33.6 km/h 95 % 12.7 mm
13:42 -14.2 °C -14.6 °C 34327.3 hPa SSW 18.2 km/h 31.1 km/h 95 % 12.7 mm
13:47 -14.2 °C -14.6 °C 34327.3 hPa SSW 10.3 km/h 31.1 km/h 95 % 12.7 mm
13:52 -14.2 °C -14.5 °C 34327.3 hPa SW 25.9 km/h 25.9 km/h 96 % 20.32 mm
13:57 -14.2 °C -14.6 °C 34313.7 hPa SW 23.3 km/h 36.2 km/h 96 % 25.4 mm
14:02 -14.2 °C -14.5 °C 34303.6 hPa SW 25.9 km/h 36.2 km/h 96 % 25.4 mm
14:12 -14.2 °C -14.5 °C 34293.4 hPa SW 18.2 km/h 33.6 km/h 96 % 25.4 mm
14:17 -14.1 °C -14.4 °C 34293.4 hPa SSW 12.9 km/h 31.1 km/h 96 % 25.4 mm
14:22 -14.1 °C -14.4 °C 34279.9 hPa SSW 15.6 km/h 28.5 km/h 96 % 25.4 mm
14:27 -14.1 °C -14.4 °C 34279.9 hPa SSW 15.6 km/h 28.5 km/h 96 % 25.4 mm
14:32 -14.1 °C -14.4 °C 34269.7 hPa SSW 18.2 km/h 28.5 km/h 96 % 25.4 mm
15:23 -14 °C -14.3 °C 34212.1 hPa South 20.8 km/h 28.5 km/h 96 % 20.32 mm
15:32 -13.9 °C -14.3 °C 34188.4 hPa SSW 18.2 km/h 33.6 km/h 96 % 20.32 mm
15:37 -13.9 °C -14.3 °C 34188.4 hPa SW 12.9 km/h 33.6 km/h 96 % 25.4 mm
15:42 -13.9 °C -14.3 °C 34178.3 hPa SSW 25.9 km/h 36.2 km/h 96 % 20.32 mm
15:52 -13.9 °C -14.3 °C 34164.7 hPa South 20.8 km/h 36.2 km/h 96 % 20.32 mm
15:57 -13.9 °C -14.3 °C 34164.7 hPa SSW 20.8 km/h 38.8 km/h 96 % 20.32 mm
16:02 -13.9 °C -14.2 °C 34154.6 hPa SSW 15.6 km/h 38.8 km/h 96 % 20.32 mm
16:12 -13.9 °C -14.2 °C 34144.4 hPa SSW 33.6 km/h 44.1 km/h 96 % 12.7 mm
16:17 -13.9 °C -14.2 °C 34144.4 hPa SW 18.2 km/h 44.1 km/h 96 % 12.7 mm
16:22 -13.8 °C -14.2 °C 34130.9 hPa SSW 15.6 km/h 44.1 km/h 96 % 12.7 mm
16:27 -13.9 °C -14.2 °C 34130.9 hPa South 28.5 km/h 41.4 km/h 96 % 12.7 mm
16:32 -13.8 °C -14.2 °C 34130.9 hPa SSW 28.5 km/h 41.4 km/h 96 % 12.7 mm
16:42 -13.8 °C -14.2 °C 34107.2 hPa South 33.6 km/h 46.7 km/h 95 % 12.7 mm
16:52 -13.8 °C -14.2 °C 34107.2 hPa South 31.1 km/h 46.7 km/h 96 % 20.32 mm
16:57 -13.8 °C -14.2 °C 34097 hPa SSW 31.1 km/h 46.7 km/h 96 % 20.32 mm
17:02 -13.8 °C -14.2 °C 34086.9 hPa South 20.8 km/h 46.7 km/h 96 % 12.7 mm
17:12 -13.8 °C -14.2 °C 34086.9 hPa South 20.8 km/h 44.1 km/h 96 % 20.32 mm
17:17 -13.8 °C -14.2 °C 34073.3 hPa SSW 25.9 km/h 44.1 km/h 95 % 20.32 mm
17:22 -13.8 °C -14.2 °C 34063.2 hPa South 25.9 km/h 51.8 km/h 95 % 25.4 mm
17:32 -13.7 °C -14.1 °C 34049.6 hPa SSW 41.4 km/h 57 km/h 95 % 25.4 mm
17:37 -13.7 °C -14.1 °C 34039.5 hPa SSW 31.1 km/h 59.5 km/h 95 % 20.32 mm
17:42 -13.7 °C -14.1 °C 34029.3 hPa South 36.2 km/h 59.5 km/h 95 % 12.7 mm
17:47 -13.8 °C -14.2 °C 34029.3 hPa SSW 41.4 km/h 54.4 km/h 95 % 12.7 mm
17:52 -13.8 °C -14.2 °C 34029.3 hPa SSW 23.3 km/h 54.4 km/h 95 % 12.7 mm
17:57 -13.8 °C -14.2 °C 34015.8 hPa South 31.1 km/h 54.4 km/h 95 % 12.7 mm
18:02 -13.8 °C -14.2 °C 34005.6 hPa SSW 28.5 km/h 51.8 km/h 96 % 20.32 mm
18:12 -13.8 °C -14.1 °C 34005.6 hPa SSW 36.2 km/h 62.1 km/h 96 % 20.32 mm
18:17 -13.8 °C -14.2 °C 33992.1 hPa SSW 28.5 km/h 62.1 km/h 95 % 20.32 mm
18:22 -13.8 °C -14.2 °C 33981.9 hPa SSW 49.2 km/h 54.4 km/h 95 % 20.32 mm
18:27 -13.8 °C -14.2 °C 33981.9 hPa South 18.2 km/h 57 km/h 95 % 25.4 mm
18:32 -13.8 °C -14.2 °C 33971.7 hPa SW 36.2 km/h 57 km/h 95 % 25.4 mm
18:37 -13.8 °C -14.1 °C 33971.7 hPa SSW 44.1 km/h 57 km/h 96 % 33.02 mm
18:42 -13.8 °C -14.2 °C 33958.2 hPa South 36.2 km/h 54.4 km/h 95 % 38.1 mm
18:47 -13.8 °C -14.2 °C 33958.2 hPa SW 28.5 km/h 54.4 km/h 95 % 38.1 mm
18:52 -13.8 °C -14.2 °C 33958.2 hPa SW 36.2 km/h 54.4 km/h 95 % 33.02 mm
18:57 -13.7 °C -14.1 °C 33948 hPa SW 20.8 km/h 51.8 km/h 95 % 33.02 mm
19:02 -13.7 °C -14.1 °C 33937.9 hPa SW 33.6 km/h 49.2 km/h 95 % 25.4 mm
19:12 -13.7 °C -14.1 °C 33924.3 hPa SW 31.1 km/h 57 km/h 95 % 20.32 mm
19:17 -13.6 °C -13.9 °C 33914.2 hPa SSW 33.6 km/h 57 km/h 96 % 12.7 mm
19:22 -13.5 °C -13.9 °C 33914.2 hPa SSW 46.7 km/h 57 km/h 95 % 12.7 mm
19:32 -13.4 °C -13.8 °C 33900.6 hPa WSW 38.8 km/h 64.7 km/h 95 % 12.7 mm
19:42 -13.1 °C -13.6 °C 33890.5 hPa WSW 23.3 km/h 64.7 km/h 95 % 7.62 mm
19:47 -12.9 °C -13.4 °C 33880.3 hPa SW 57 km/h 67.3 km/h 94 % 7.62 mm
19:52 -12.8 °C -13.4 °C 33880.3 hPa SW 57 km/h 77.7 km/h 93 % 7.62 mm
19:57 -12.7 °C -13.3 °C 33866.8 hPa WSW 82.9 km/h 85.5 km/h 93 % 7.62 mm
20:02 -12.5 °C -13.4 °C 33880.3 hPa WSW 57 km/h 116.5 km/h 89 % 12.7 mm
20:07 -12.4 °C -13.8 °C 33880.3 hPa West 36.2 km/h 116.5 km/h 84 % 12.7 mm
20:17 -12.2 °C -14.3 °C 33900.6 hPa SW 57 km/h 113.9 km/h 77 % 7.62 mm
20:22 -12.3 °C -14.7 °C 33900.6 hPa West 80.3 km/h 113.9 km/h 75 % 7.62 mm
20:27 -12.5 °C -14.6 °C 33900.6 hPa West 75.2 km/h 113.9 km/h 77 % 7.62 mm
20:32 -12.7 °C -14.9 °C 33914.2 hPa West 49.2 km/h 113.9 km/h 76 % 7.62 mm
20:37 -12.8 °C -14.9 °C 33924.3 hPa WNW 54.4 km/h 113.9 km/h 77 % 7.62 mm
20:42 -12.9 °C -15 °C 33924.3 hPa West 46.7 km/h 98.3 km/h 77 % 7.62 mm
20:52 -13.1 °C -15.3 °C 33937.9 hPa West 67.3 km/h 93.2 km/h 76 % 7.62 mm
21:02 -13.2 °C -15.2 °C 33937.9 hPa WSW 38.8 km/h 90.6 km/h 78 % 0 mm
21:07 -13.3 °C -15.2 °C 33948 hPa WNW 20.8 km/h 95.8 km/h 79 % 0 mm
21:17 -13.4 °C -15.2 °C 33958.2 hPa West 38.8 km/h 80.3 km/h 80 % 0 mm
21:22 -13.4 °C -15.2 °C 33958.2 hPa West 46.7 km/h 80.3 km/h 81 % 0 mm
21:32 -13.5 °C -15.4 °C 33958.2 hPa WNW 25.9 km/h 88 km/h 79 % 0 mm
21:37 -13.5 °C -15.4 °C 33971.7 hPa WSW 51.8 km/h 93.2 km/h 79 % 0 mm
21:42 -13.6 °C -15.4 °C 33958.2 hPa West 33.6 km/h 93.2 km/h 79 % 0 mm
21:52 -13.7 °C -15.6 °C 33971.7 hPa West 46.7 km/h 98.3 km/h 79 % 0 mm
21:57 -13.7 °C -15.6 °C 33981.9 hPa WSW 41.4 km/h 98.3 km/h 79 % 0 mm
22:02 -13.7 °C -15.7 °C 33981.9 hPa WNW 31.1 km/h 90.6 km/h 78 % 0 mm
22:12 -13.7 °C -15.7 °C 33992.1 hPa West 41.4 km/h 80.3 km/h 78 % 0 mm
22:17 -13.8 °C -15.7 °C 33992.1 hPa West 49.2 km/h 80.3 km/h 79 % 0 mm
22:22 -13.8 °C -15.6 °C 33992.1 hPa South 33.6 km/h 80.3 km/h 80 % 0 mm
22:32 -13.8 °C -15.6 °C 34015.8 hPa West 18.2 km/h 82.9 km/h 80 % 0 mm
22:37 -13.9 °C -15.7 °C 34015.8 hPa WSW 44.1 km/h 82.9 km/h 80 % 0 mm
22:42 -13.9 °C -15.9 °C 34005.6 hPa West 64.7 km/h 82.9 km/h 78 % 0 mm
22:52 -14 °C -16.1 °C 34015.8 hPa West 69.8 km/h 95.8 km/h 77 % 0 mm
22:57 -14.1 °C -16.1 °C 34029.3 hPa WNW 33.6 km/h 95.8 km/h 77 % 0 mm
23:02 -14.1 °C -16 °C 34029.3 hPa WSW 25.9 km/h 95.8 km/h 79 % 0 mm
23:12 -14.2 °C -16.6 °C 34039.5 hPa West 44.1 km/h 69.8 km/h 74 % 0 mm
23:17 -14.2 °C -16.6 °C 34039.5 hPa West 33.6 km/h 80.3 km/h 74 % 0 mm
23:22 -14.2 °C -16.6 °C 34039.5 hPa WSW 41.4 km/h 80.3 km/h 74 % 0 mm
23:27 -14.2 °C -16.7 °C 34039.5 hPa West 33.6 km/h 80.3 km/h 73 % 0 mm
23:32 -14.3 °C -16.9 °C 34049.6 hPa WSW 28.5 km/h 106.2 km/h 72 % 0 mm
23:37 -14.3 °C -16.8 °C 34049.6 hPa West 46.7 km/h 106.2 km/h 73 % 0 mm
23:47 -14.4 °C -16.3 °C 34063.2 hPa West 23.3 km/h 69.8 km/h 78 % 0 mm
23:52 -14.4 °C -16.5 °C 34063.2 hPa West 51.8 km/h 67.3 km/h 77 % 0 mm
23:57 -14.4 °C -16.7 °C 34063.2 hPa WNW 59.5 km/h 82.9 km/h 75 % 0 mm
Meteo18
Compliments of Weather Underground - 4 mb

Script developed by  Jim McMurry - jmcmurry@mwt.net Adapted for the template by  Wim van der Kuil - Leuven-Template.eu

You find our weather info also at:

European Weather Network

Weather Underground

Equipment we use:

Weather-station
Davis Vue

Weather-program
Meteobridge

Weather-server
Raspberry PI 2 B+

Provider
1 and 1

Davis Vue

Meteobridge

Raspberry PI 2 B+

1 and 1